Location: Cointrin
(46.2167°N, 6.1167°E)
Time: 04:50:41
(UTC+00:00)

IGS 5A - Pass Details

Date: 08 February 2023
Orbit: 578 x 583 km, 97.5° (Epoch: 10 March)

Event Time Altitude Azimuth Distance (km) Brightness Sun altitude
Exits shadow 18:46:29 47° 135° (SE) 776 3.7 -20.5°
Maximum altitude 18:47:29 66° 75° (ENE) 639 3.3 -20.6°
Drops below altitude 10° 18:51:35 10° 353° (N) 1,907 6.1 -21.3°
Sets 18:53:46 0° 351° (N) 2,810 7.1 -21.7°
